Clearfield, PA

5:00 AM EST on February 21, 2017 (GMT -0500)
Clearfield-Lawrence

Weather History for KFIG - January, 2014

Change the Weather History Date:

Wednesday, January 8, 2014

  Actual Average (KDUJ) Record (KDUJ)
Temperature  
Mean Temperature 9 °F -  
Max Temperature 18 °F 25 °F 66 °F (2008)
Min Temperature 0 °F 11 °F -8 °F (1968)
Degree Days  
Heating Degree Days 56    
Moisture  
Dew Point 3 °F    
Average Humidity 74    
Maximum Humidity 92    
Minimum Humidity 54    
Precipitation  
Precipitation 0.00 in - - ()
Sea Level Pressure  
Sea Level Pressure 30.46 in    
Wind  
Wind Speed 6 mph (SW)    
Max Wind Speed 9 mph    
Max Gust Speed -    
Visibility 8 miles    
Events Snow    
Averages and records for this station are not official NWS values.
T = Trace of Precipitation, MM = Missing Value Source: NWS Daily Summary

Daily Weather History Graph

Daily Weather History Graph

Search for Another Location

Airport or City:

Trip Planner

Search our weather history database for the weather conditions in past years. The results will help you decide how hot, cold, wet, or windy it might be!

Date:

Astronomy

Jan. 08, 2014 Rise Set
Actual Time 7:38 AM EST 5:02 PM EST
Civil Twilight 7:07 AM EST 5:33 PM EST
Nautical Twilight 6:33 AM EST 6:07 PM EST
Astronomical Twilight 6:00 AM EST 6:40 PM EST
Moon 11:55 AM EST (1/8) 12:40 AM EST (1/8)
Length of Visible Light 10h 25m
Length of Day
9h 23m
First Quarter, 56% of the Moon is Illuminated
Jan 8
First Quarter
Jan 15
Full
Jan 24
Last Quarter
Jan 30
New
Feb 6
First Quarter

Hourly Weather History & Observations

Time (EST) Temp. Windchill Dew Point Humidity Pressure Visibility Wind Dir Wind Speed Gust Speed Precip Events Conditions
12:54 AM -0.0 °F -13.0 °F -7.1 °F 72% 30.42 in 10.0 mi WSW 6.9 mph - N/A   Clear
1:54 AM -0.0 °F -9.9 °F -6.0 °F 76% 30.43 in 10.0 mi SW 4.6 mph - N/A   Clear
2:54 AM -0.0 °F -11.6 °F -6.0 °F 76% 30.45 in 10.0 mi SW 5.8 mph - N/A   Clear
3:54 AM -0.0 °F -11.6 °F -4.0 °F 83% 30.46 in 10.0 mi SW 5.8 mph - N/A   Clear
4:54 AM -0.0 °F -14.2 °F -4.0 °F 83% 30.46 in 10.0 mi SSW 8.1 mph - N/A   Clear
5:54 AM -0.0 °F -15.3 °F -5.1 °F 79% 30.46 in 10.0 mi SW 9.2 mph - N/A   Clear
6:54 AM -0.0 °F -15.3 °F -4.0 °F 83% 30.48 in 10.0 mi SSW 9.2 mph - N/A   Clear
7:54 AM 1.9 °F -9.2 °F -2.9 °F 80% 30.50 in 10.0 mi SW 5.8 mph - N/A   Overcast
8:54 AM 3.9 °F -5.3 °F -2.0 °F 76% 30.52 in 10.0 mi SW 4.6 mph - N/A   Overcast
9:54 AM 6.1 °F -7.8 °F -0.9 °F 73% 30.54 in 10.0 mi SW 9.2 mph - N/A   Overcast
10:54 AM 9.0 °F -2.2 °F -0.0 °F 67% 30.53 in 10.0 mi SSW 6.9 mph - N/A   Overcast
11:54 AM 10.9 °F -0.8 °F 1.0 °F 64% 30.50 in 10.0 mi SSW 8.1 mph - 0.00 in   Overcast
12:54 PM 12.9 °F 3.8 °F 1.0 °F 59% 30.47 in 10.0 mi SW 5.8 mph - N/A   Overcast
1:54 PM 14.0 °F 2.9 °F -0.0 °F 54% 30.46 in 10.0 mi SSW 8.1 mph - N/A   Overcast
2:54 PM 15.1 °F 5.2 °F 1.9 °F 56% 30.45 in 10.0 mi Variable 6.9 mph - N/A   Overcast
3:54 PM 16.0 °F 6.3 °F 3.0 °F 57% 30.46 in 10.0 mi SW 6.9 mph - 0.00 in   Overcast
4:54 PM 17.1 °F 10.0 °F 3.9 °F 56% 30.46 in 10.0 mi SW 4.6 mph - N/A   Overcast
5:54 PM 17.1 °F 7.6 °F 6.1 °F 62% 30.46 in 10.0 mi SW 6.9 mph - 0.00 in   Overcast
6:54 PM 17.1 °F 11.7 °F 7.0 °F 65% 30.47 in 10.0 mi SSW 3.5 mph - 0.00 in   Overcast
7:54 PM 18.0 °F - 7.0 °F 62% 30.48 in 10.0 mi Calm Calm - N/A   Overcast
8:54 PM 17.1 °F 10.0 °F 10.0 °F 74% 30.48 in 5.0 mi SSW 4.6 mph - 0.00 in Snow Light Snow
9:54 PM 16.0 °F 10.4 °F 12.9 °F 88% 30.48 in 3.0 mi SSW 3.5 mph - 0.00 in Snow Light Snow
10:04 PM 16.0 °F - 12.9 °F 88% 30.38 in 2.5 mi Calm Calm - 0.00 in Snow Light Snow
10:11 PM 16.0 °F - 12.9 °F 88% 30.38 in 3.0 mi Calm Calm - 0.00 in Snow Light Snow
10:25 PM 16.0 °F - 12.9 °F 88% 30.39 in 2.5 mi Calm Calm - 0.00 in Snow Light Snow
10:54 PM 16.0 °F 10.4 °F 14.0 °F 92% 30.48 in 2.5 mi SSW 3.5 mph - 0.00 in Snow Light Snow
11:25 PM 16.0 °F 10.4 °F 14.0 °F 92% 30.39 in 4.0 mi South 3.5 mph - 0.00 in Snow Light Snow
11:54 PM 16.0 °F 10.4 °F 14.0 °F 92% 30.48 in 9.0 mi Variable 3.5 mph - 0.00 in   Overcast